TimeCDT,TemperatureF,Dew PointF,Humidity,Sea Level PressureIn,VisibilityMPH,Wind Direction,Wind SpeedMPH,Gust SpeedMPH,PrecipitationIn,Events,Conditions,WindDirDegrees,DateUTC
12:55 AM,28.0,26.1,92,29.91,10.0,WNW,3.5,-,N/A,,Clear,300,2012-10-15 05:55:00
1:55 AM,28.9,28.0,96,29.91,10.0,Calm,Calm,-,N/A,,Clear,0,2012-10-15 06:55:00
2:55 AM,24.1,23.0,96,29.91,4.0,Calm,Calm,-,N/A,,Clear,0,2012-10-15 07:55:00
3:52 AM,26.6,24.8,93,29.87,1.5,Calm,Calm,-,N/A,,Clear,0,2012-10-15 08:52:00
3:55 AM,25.0,25.0,100,29.91,0.8,Calm,Calm,-,N/A,,Clear,0,2012-10-15 08:55:00
4:03 AM,21.2,19.4,93,29.87,2.0,Calm,Calm,-,N/A,,Clear,0,2012-10-15 09:03:00
4:10 AM,21.2,19.4,93,29.87,10.0,Calm,Calm,-,N/A,,Clear,0,2012-10-15 09:10:00
4:38 AM,24.8,21.2,86,29.87,1.8,Calm,Calm,-,N/A,,Clear,0,2012-10-15 09:38:00
4:49 AM,23.0,21.2,93,29.87,0.8,Calm,Calm,-,N/A,,Mist,0,2012-10-15 09:49:00
4:55 AM,21.9,19.9,92,29.91,1.0,Calm,Calm,-,N/A,,Mist,0,2012-10-15 09:55:00
5:00 AM,23.0,19.4,86,29.87,2.0,Calm,Calm,-,N/A,,Scattered Clouds,0,2012-10-15 10:00:00
5:13 AM,24.8,23.0,93,29.88,1.8,Calm,Calm,-,N/A,,Mostly Cloudy,0,2012-10-15 10:13:00
5:24 AM,24.8,23.0,93,29.87,2.5,Calm,Calm,-,N/A,,Mostly Cloudy,0,2012-10-15 10:24:00
5:39 AM,26.6,24.8,93,29.87,1.2,Calm,Calm,-,N/A,,Overcast,0,2012-10-15 10:39:00
5:46 AM,26.6,24.8,93,29.88,1.0,West,3.5,-,N/A,,Mist,260,2012-10-15 10:46:00
5:55 AM,27.0,25.0,92,29.92,1.2,Calm,Calm,-,N/A,,Overcast,0,2012-10-15 10:55:00
6:17 AM,28.4,26.6,93,29.88,0.5,Calm,Calm,-,N/A,Fog,Light Freezing Fog,0,2012-10-15 11:17:00
6:27 AM,26.6,26.6,100,29.88,0.2,Calm,Calm,-,N/A,Fog,Light Freezing Fog,0,2012-10-15 11:27:00
6:55 AM,28.0,27.0,96,29.92,0.2,Calm,Calm,-,N/A,Fog,Light Freezing Fog,0,2012-10-15 11:55:00
7:55 AM,28.0,27.0,96,29.92,0.2,SE,3.5,-,N/A,Fog,Light Freezing Fog,130,2012-10-15 12:55:00
8:30 AM,28.4,28.4,100,29.88,1.0,Calm,Calm,-,N/A,,Overcast,0,2012-10-15 13:30:00
8:39 AM,28.4,28.4,100,29.89,0.2,SSW,3.5,-,N/A,Fog,Light Freezing Fog,210,2012-10-15 13:39:00
8:53 AM,30.2,28.4,93,29.89,0.2,SW,3.5,-,N/A,Fog,Light Freezing Fog,220,2012-10-15 13:53:00
8:55 AM,30.0,28.9,96,29.94,0.2,SW,4.6,-,N/A,Fog,Light Freezing Fog,220,2012-10-15 13:55:00
9:30 AM,32.0,30.2,93,29.89,0.5,Calm,Calm,-,N/A,Fog,Fog,0,2012-10-15 14:30:00
9:42 AM,32.0,32.0,100,29.89,0.2,Calm,Calm,-,N/A,Fog,Fog,0,2012-10-15 14:42:00
9:55 AM,32.0,32.0,100,29.94,0.2,SSW,3.5,-,N/A,Fog,Fog,200,2012-10-15 14:55:00
10:38 AM,37.4,37.4,100,29.89,1.0,Calm,Calm,-,N/A,,Mist,0,2012-10-15 15:38:00
10:51 AM,37.4,37.4,100,29.89,3.0,South,3.5,-,N/A,,Overcast,190,2012-10-15 15:51:00
10:55 AM,37.9,37.0,97,29.93,6.0,Calm,Calm,-,N/A,,Overcast,0,2012-10-15 15:55:00
11:17 AM,39.2,37.4,93,29.88,10.0,SSW,3.5,-,N/A,,Scattered Clouds,210,2012-10-15 16:17:00
11:55 AM,48.0,37.0,66,29.90,10.0,Variable,5.8,-,N/A,,Clear,0,2012-10-15 16:55:00
12:55 PM,53.1,36.0,52,29.88,10.0,Variable,4.6,-,N/A,,Clear,0,2012-10-15 17:55:00
1:55 PM,55.0,36.0,49,29.85,10.0,Variable,3.5,-,N/A,,Clear,0,2012-10-15 18:55:00
2:55 PM,57.0,36.0,45,29.83,10.0,Variable,5.8,-,N/A,,Clear,0,2012-10-15 19:55:00
3:55 PM,55.9,37.0,49,29.81,10.0,SE,9.2,-,N/A,,Scattered Clouds,140,2012-10-15 20:55:00
4:55 PM,55.0,36.0,49,29.80,10.0,SSE,5.8,-,N/A,,Overcast,150,2012-10-15 21:55:00
5:55 PM,54.0,37.0,53,29.78,10.0,SE,5.8,-,N/A,,Overcast,140,2012-10-15 22:55:00
6:55 PM,53.1,37.0,55,29.76,10.0,SE,5.8,-,N/A,,Overcast,140,2012-10-15 23:55:00
7:55 PM,52.0,37.0,57,29.73,10.0,ESE,8.1,-,N/A,,Overcast,120,2012-10-16 00:55:00
8:55 PM,52.0,37.0,57,29.72,10.0,SE,8.1,-,N/A,,Overcast,140,2012-10-16 01:55:00
9:55 PM,52.0,36.0,54,29.70,10.0,SSE,6.9,-,N/A,,Overcast,150,2012-10-16 02:55:00
10:55 PM,52.0,36.0,54,29.68,10.0,SSE,8.1,-,N/A,,Overcast,150,2012-10-16 03:55:00
11:55 PM,51.1,35.1,54,29.64,10.0,SSE,8.1,-,N/A,,Scattered Clouds,150,2012-10-16 04:55:00